STARLINK-11521, 62597

Orbit data source: Space-Track

STARLINK-11521, 62597 is a payload satellite owned by SpaceX/Seattle (US) in LEO that was launched on Mon, 13 Jan 2025 UTC via an FALCON 9 launch vehicle from the Air Force Eastern Test Range (AFETR). Payload-class satellites include a variety of spacecraft equipped with specific instruments for various scientific and technological missions. These include communications satellites like Starlink; space stations such as the ISS; scientific satellites like the Hubble; Earth observation satellites from companies like Planet Labs, Umbra, and HawkEye 360; GPS; miniature CubeSats for education and research; and military/defense satellites.

Loading next visibility...
Identifier
62597, 2025-008L
Orbit
LEO
Country
Flag of USUS
Related business
Manufacturer
SpaceX/Seattle
Mission
Operational Commercial Communications
Bus & Motor
STARLINK V2MD, Unknown motor
Mass
960 kg wet, ~910 kg dry
Launch date (UTC)
2025-01-13 (8 months ago)
Launch vehicle
FALCON 9
Launch site
Air Force Eastern Test Range (AFETR)
Object type
Payload
Rocket body
Debris
Shape & HBR
Box + 2 Pan, 14.5 m
Radar Cross Section
36.964 m², Large (>1 m²)

Expand to show TLE details & history
Last TLE update: 22 hours ago

TLE from 22 hours ago
0 STARLINK-11521
1 62597U 25008L   25257.99394130  .00129734  00000-0  99762-3 0  9995
2 62597  42.9983 105.0393 0001208 309.3309  50.7451 15.70869235 39656
Epoch: 2025-09-14T23:51Z
TLE epoch observation values (Epoch: 2025-09-14T23:51:16.528Z)
Latitude
-0.00004°
Longitude
113.01542°
Altitude
355.668 km
Speed
7.698 km/s
True Right ascension
07h 00m 09s
True Declination
0° 00' 00"
Sunlit
Object was in daylight at epoch
Visualization orbit readout
Latitude
Unknown
Longitude
Unknown
Altitude
Unknown
Speed
Unknown
Apparent Right ascension
Unknown
Apparent Declination
Unknown
Sunlit
N/A
Visualization observer readout
Local Sidereal Time
14:43:52
Azimuth
Unknown
Elevation
Unknown
Doppler factor
Unknown
Orbital elements
Apogee altitude
359.207 km
Perigee altitude
357.58 km
Semi-major axis
6,736.53 km
Eccentricity
0.00012
Inclination
42.9983°
RAAN
105.0393°
Arg. of periapsis
309.3309°
True anomaly
50.75582°
Mean anomaly
50.7451°
Eccentric anomaly
50.75046°
Mean motion
3.92544 °/min
Orbital period
91.71 mins
BSTAR
0.00099762
Loading maneuver chart data...
Computing Atmospheric mass density...
Loading historical data...
Loading historical data...
Loading historical data...
Loading historical data...
Loading historical data...
Loading historical data...
Loading historical data...

Documentation

Showing up to 5 results
|